Location: Invercargill
(46.4000°S, 168.3500°E)
Time: 15:50:49
(UTC+13:00)

Vanguard 2 Rocket - Visible Passes

Search period start: 16 October 2019 00:00
Search period end: 26 October 2019 00:00
Orbit: 554 x 3326 km, 32.9° (Epoch: 13 October)

Date Brightness Start Highest point End Pass type
(mag) Time Alt. Az. Time Alt. Az. Time Alt. Az.
16 Oct 9.1 03:23:37 17° NE 03:23:37 17° NE 03:26:04 10° NE visible
16 Oct 8.7 05:29:27 17° NW 05:32:51 22° N 05:40:33 10° NNE visible
17 Oct 8.6 04:33:29 22° N 04:33:29 22° N 04:39:55 10° NE visible
18 Oct 9.2 03:37:36 14° NE 03:37:36 14° NE 03:39:20 10° NE visible
18 Oct 8.9 05:43:26 12° NW 05:46:50 15° NNW 05:52:02 10° NNE visible
19 Oct 8.8 04:47:37 16° N 04:47:37 16° N 04:52:07 10° NNE visible
20 Oct 9.4 03:51:51 10° NNE 03:51:51 10° NNE 03:52:04 10° NNE visible
25 Oct 8.3 21:51:54 10° N 21:53:04 11° N 21:53:04 11° N visible
